User: anonymous   Login
Location: Unspecified
(0.0000°N, 0.0000°E)
Time: 18:54:57
(UTC+00:00)
Language:

UNISAT 6 - Orbit

View from above orbital plane
View from above orbital plane
View from above satellite
View from above satellite

Ground track
Ground track

The orbit data is extracted from the following two-line orbital elements,

1 40012U 14033C   17145.93145368 +.00000272 +00000-0 +48329-4 0  9996
2 40012 097.8601 030.3592 0058974 007.1688 353.0350 14.73605429157660
Epoch (UTC): 25 May 2017 22:21:17
Eccentricity: 0.0058974
inclination: 97.8601°
perigee height: 608 km
apogee height: 691 km
right ascension of ascending node: 30.3592°
argument of perigee: 7.1688°
revolutions per day: 14.73605429
mean anomaly at epoch: 353.0350°
orbit number at epoch: 15766

The dashed part of the orbit path shows where the satellite is in the earth's shadow,  

DLR